Year,Month,Day,Hour,Minute,Value (Times are PST for temperature in C)
2008,08,24,00,00,16.10
2008,08,24,00,01,16.10
2008,08,24,00,02,16.10
2008,08,24,00,03,16.10
2008,08,24,00,04,16.20
2008,08,24,00,05,16.20
2008,08,24,00,06,16.20
2008,08,24,00,07,16.20
2008,08,24,00,08,16.20
2008,08,24,00,09,16.20
2008,08,24,00,10,16.20
2008,08,24,00,11,16.20
2008,08,24,00,12,16.10
2008,08,24,00,13,16.10
2008,08,24,00,14,16.10
2008,08,24,00,15,16.10
2008,08,24,00,16,16.10
2008,08,24,00,17,16.10
2008,08,24,00,18,16.10
2008,08,24,00,19,16.10
2008,08,24,00,20,16.10
2008,08,24,00,21,16.10
2008,08,24,00,22,16.10
2008,08,24,00,23,16.10
2008,08,24,00,24,16.10
2008,08,24,00,25,16.10
2008,08,24,00,26,16.10
2008,08,24,00,27,16.00
2008,08,24,00,28,16.00
2008,08,24,00,29,16.00
2008,08,24,00,30,16.00
2008,08,24,00,31,16.00
2008,08,24,00,32,16.00
2008,08,24,00,33,16.00
2008,08,24,00,34,16.00
2008,08,24,00,35,16.00
2008,08,24,00,36,16.00
2008,08,24,00,37,16.00
2008,08,24,00,38,16.00
2008,08,24,00,39,16.00
2008,08,24,00,40,15.90
2008,08,24,00,41,15.90
2008,08,24,00,42,15.90
2008,08,24,00,43,15.90
2008,08,24,00,44,15.90
2008,08,24,00,45,15.90
2008,08,24,00,46,15.90
2008,08,24,00,47,15.80
2008,08,24,00,48,15.80
2008,08,24,00,49,15.80
2008,08,24,00,50,15.80
2008,08,24,00,51,15.80
2008,08,24,00,52,15.80
2008,08,24,00,53,15.80
2008,08,24,00,54,15.80
2008,08,24,00,55,15.80
2008,08,24,00,56,15.80
2008,08,24,00,57,15.80
2008,08,24,00,58,15.80
2008,08,24,00,59,15.80
2008,08,24,01,00,15.80
2008,08,24,01,01,15.80
2008,08,24,01,02,15.80
2008,08,24,01,03,15.80
2008,08,24,01,04,15.80
2008,08,24,01,05,15.80
2008,08,24,01,06,15.80
2008,08,24,01,07,15.80
2008,08,24,01,08,15.80
2008,08,24,01,09,15.80
2008,08,24,01,10,15.80
2008,08,24,01,11,15.80
2008,08,24,01,12,15.80
2008,08,24,01,13,15.80
2008,08,24,01,14,15.80
2008,08,24,01,15,15.80
2008,08,24,01,16,15.80
2008,08,24,01,17,15.80
2008,08,24,01,18,15.80
2008,08,24,01,19,15.80
2008,08,24,01,20,15.80
2008,08,24,01,21,15.80
2008,08,24,01,22,15.80
2008,08,24,01,23,15.80
2008,08,24,01,24,15.80
2008,08,24,01,25,15.80
2008,08,24,01,26,15.80
2008,08,24,01,27,15.80
2008,08,24,01,28,15.70
2008,08,24,01,29,15.70
2008,08,24,01,30,15.70
2008,08,24,01,31,15.70
2008,08,24,01,32,15.70
2008,08,24,01,33,15.70
2008,08,24,01,34,15.70
2008,08,24,01,35,15.70
2008,08,24,01,36,15.70
2008,08,24,01,37,15.70
2008,08,24,01,38,15.70
2008,08,24,01,39,15.60
2008,08,24,01,40,15.60
2008,08,24,01,41,15.60
2008,08,24,01,42,15.60
2008,08,24,01,43,15.60
2008,08,24,01,44,15.60
2008,08,24,01,45,15.60
2008,08,24,01,46,15.60
2008,08,24,01,47,15.60
2008,08,24,01,48,15.60
2008,08,24,01,49,15.60
2008,08,24,01,50,15.60
2008,08,24,01,51,15.60
2008,08,24,01,52,15.60
2008,08,24,01,53,15.60
2008,08,24,01,54,15.60
2008,08,24,01,55,15.60
2008,08,24,01,56,15.60
2008,08,24,01,57,15.60
2008,08,24,01,58,15.60
2008,08,24,01,59,15.60
2008,08,24,02,00,15.60
2008,08,24,02,01,15.60
2008,08,24,02,02,15.60
2008,08,24,02,03,15.60
2008,08,24,02,04,15.60
2008,08,24,02,05,15.60
2008,08,24,02,06,15.60
2008,08,24,02,07,15.60
2008,08,24,02,08,15.60
2008,08,24,02,09,15.60
2008,08,24,02,10,15.60
2008,08,24,02,11,15.60
2008,08,24,02,12,15.60
2008,08,24,02,13,15.60
2008,08,24,02,14,15.60
2008,08,24,02,15,15.60
2008,08,24,02,16,15.60
2008,08,24,02,17,15.60
2008,08,24,02,18,15.60
2008,08,24,02,19,15.60
2008,08,24,02,20,15.60
2008,08,24,02,21,15.60
2008,08,24,02,22,15.60
2008,08,24,02,23,15.60
2008,08,24,02,24,15.60
2008,08,24,02,25,15.60
2008,08,24,02,26,15.60
2008,08,24,02,27,15.60
2008,08,24,02,28,15.60
2008,08,24,02,29,15.60
2008,08,24,02,30,15.60
2008,08,24,02,31,15.60
2008,08,24,02,32,15.60
2008,08,24,02,33,15.60
2008,08,24,02,34,15.60
2008,08,24,02,35,15.60
2008,08,24,02,36,15.60
2008,08,24,02,37,15.60
2008,08,24,02,38,15.60
2008,08,24,02,39,15.60
2008,08,24,02,40,15.60
2008,08,24,02,41,15.60
2008,08,24,02,42,15.60
2008,08,24,02,43,15.60
2008,08,24,02,44,15.60
2008,08,24,02,45,15.60
2008,08,24,02,46,15.60
2008,08,24,02,47,15.60
2008,08,24,02,48,15.60
2008,08,24,02,49,15.60
2008,08,24,02,50,15.60
2008,08,24,02,51,15.60
2008,08,24,02,52,15.60
2008,08,24,02,53,15.60
2008,08,24,02,54,15.60
2008,08,24,02,55,15.60
2008,08,24,02,56,15.50
2008,08,24,02,57,15.50
2008,08,24,02,58,15.50
2008,08,24,02,59,15.50
2008,08,24,03,00,15.50
2008,08,24,03,01,15.60
2008,08,24,03,02,15.60
2008,08,24,03,03,15.60
2008,08,24,03,04,15.50
2008,08,24,03,05,15.50
2008,08,24,03,06,15.50
2008,08,24,03,07,15.50
2008,08,24,03,08,15.50
2008,08,24,03,09,15.50
2008,08,24,03,10,15.60
2008,08,24,03,11,15.60
2008,08,24,03,12,15.60
2008,08,24,03,13,15.60
2008,08,24,03,14,15.60
2008,08,24,03,15,15.60
2008,08,24,03,16,15.60
2008,08,24,03,17,15.60
2008,08,24,03,18,15.60
2008,08,24,03,19,15.60
2008,08,24,03,20,15.60
2008,08,24,03,21,15.60
2008,08,24,03,22,15.60
2008,08,24,03,23,15.60
2008,08,24,03,24,15.60
2008,08,24,03,25,15.60
2008,08,24,03,26,15.60
2008,08,24,03,27,15.60
2008,08,24,03,28,15.60
2008,08,24,03,29,15.60
2008,08,24,03,30,15.60
2008,08,24,03,31,15.60
2008,08,24,03,32,15.70
2008,08,24,03,33,15.60
2008,08,24,03,34,15.60
2008,08,24,03,35,15.60
2008,08,24,03,36,15.60
2008,08,24,03,37,15.60
2008,08,24,03,38,15.60
2008,08,24,03,39,15.60
2008,08,24,03,40,15.60
2008,08,24,03,41,15.70
2008,08,24,03,42,15.60
2008,08,24,03,43,15.70
2008,08,24,03,44,15.70
2008,08,24,03,45,15.70
2008,08,24,03,46,15.70
2008,08,24,03,47,15.70
2008,08,24,03,48,15.70
2008,08,24,03,49,15.70
2008,08,24,03,50,15.70
2008,08,24,03,51,15.70
2008,08,24,03,52,15.80
2008,08,24,03,53,15.80
2008,08,24,03,54,15.80
2008,08,24,03,55,15.80
2008,08,24,03,56,15.80
2008,08,24,03,57,15.80
2008,08,24,03,58,15.80
2008,08,24,03,59,15.80
2008,08,24,04,00,15.80
2008,08,24,04,01,15.80
2008,08,24,04,02,15.80
2008,08,24,04,03,15.80
2008,08,24,04,04,15.80
2008,08,24,04,05,15.90
2008,08,24,04,06,15.90
2008,08,24,04,07,15.90
2008,08,24,04,08,15.90
2008,08,24,04,09,15.90
2008,08,24,04,10,15.90
2008,08,24,04,11,16.00
2008,08,24,04,12,16.00
2008,08,24,04,13,16.10
2008,08,24,04,14,16.10
2008,08,24,04,15,16.10
2008,08,24,04,16,16.10
2008,08,24,04,17,16.10
2008,08,24,04,18,16.10
2008,08,24,04,19,16.10
2008,08,24,04,20,16.10
2008,08,24,04,21,16.10
2008,08,24,04,22,16.10
2008,08,24,04,23,16.10
2008,08,24,04,24,16.10
2008,08,24,04,25,16.10
2008,08,24,04,26,16.10
2008,08,24,04,27,16.10
2008,08,24,04,28,16.10
2008,08,24,04,29,16.10
2008,08,24,04,30,16.10
2008,08,24,04,31,16.10
2008,08,24,04,32,16.10
2008,08,24,04,33,16.10
2008,08,24,04,34,16.10
2008,08,24,04,35,16.00
2008,08,24,04,36,16.00
2008,08,24,04,37,15.90
2008,08,24,04,38,15.90
2008,08,24,04,39,15.90
2008,08,24,04,40,15.80
2008,08,24,04,41,15.80
2008,08,24,04,42,15.80
2008,08,24,04,43,15.80
2008,08,24,04,44,15.80
2008,08,24,04,45,15.80
2008,08,24,04,46,15.80
2008,08,24,04,47,15.90
2008,08,24,04,48,15.90
2008,08,24,04,49,15.90
2008,08,24,04,50,15.90
2008,08,24,04,51,15.90
2008,08,24,04,52,15.90
2008,08,24,04,53,15.80
2008,08,24,04,54,15.80
2008,08,24,04,55,15.80
2008,08,24,04,56,15.80
2008,08,24,04,57,15.80
2008,08,24,04,58,15.80
2008,08,24,04,59,15.80
2008,08,24,05,00,15.80
2008,08,24,05,01,15.80
2008,08,24,05,02,15.80
2008,08,24,05,03,15.80
2008,08,24,05,04,15.80
2008,08,24,05,05,15.80
2008,08,24,05,06,15.80
2008,08,24,05,07,15.80
2008,08,24,05,08,15.80
2008,08,24,05,09,15.80
2008,08,24,05,10,15.80
2008,08,24,05,11,15.70
2008,08,24,05,12,15.70
2008,08,24,05,13,15.70
2008,08,24,05,14,15.70
2008,08,24,05,15,15.70
2008,08,24,05,16,15.70
2008,08,24,05,17,15.70
2008,08,24,05,18,15.70
2008,08,24,05,19,15.70
2008,08,24,05,20,15.70
2008,08,24,05,21,15.70
2008,08,24,05,22,15.70
2008,08,24,05,23,15.70
2008,08,24,05,24,15.70
2008,08,24,05,25,15.70
2008,08,24,05,26,15.70
2008,08,24,05,27,15.80
2008,08,24,05,28,15.80
2008,08,24,05,29,15.80
2008,08,24,05,30,15.80
2008,08,24,05,31,15.80
2008,08,24,05,32,15.80
2008,08,24,05,33,15.80
2008,08,24,05,34,15.90
2008,08,24,05,35,15.90
2008,08,24,05,36,15.90
2008,08,24,05,37,15.90
2008,08,24,05,38,15.90
2008,08,24,05,39,15.90
2008,08,24,05,40,15.90
2008,08,24,05,41,15.90
2008,08,24,05,42,15.90
2008,08,24,05,43,15.90
2008,08,24,05,44,15.90
2008,08,24,05,45,15.80
2008,08,24,05,46,15.80
2008,08,24,05,47,15.90
2008,08,24,05,48,15.90
2008,08,24,05,49,15.90
2008,08,24,05,50,15.90
2008,08,24,05,51,15.90
2008,08,24,05,52,15.80
2008,08,24,05,53,15.80
2008,08,24,05,54,15.80
2008,08,24,05,55,15.80
2008,08,24,05,56,15.80
2008,08,24,05,57,15.80
2008,08,24,05,58,15.80
2008,08,24,05,59,15.80
2008,08,24,06,00,15.80
2008,08,24,06,01,15.80
2008,08,24,06,02,15.80
2008,08,24,06,03,15.80
2008,08,24,06,04,15.80
2008,08,24,06,05,15.80
2008,08,24,06,06,15.80
2008,08,24,06,07,15.90
2008,08,24,06,08,15.90
2008,08,24,06,09,15.90
2008,08,24,06,10,15.90
2008,08,24,06,11,15.90
2008,08,24,06,12,15.90
2008,08,24,06,13,15.90
2008,08,24,06,14,15.90
2008,08,24,06,15,15.90
2008,08,24,06,16,15.90
2008,08,24,06,17,15.90
2008,08,24,06,18,15.90
2008,08,24,06,19,15.90
2008,08,24,06,20,15.90
2008,08,24,06,21,15.90
2008,08,24,06,22,15.90
2008,08,24,06,23,15.90
2008,08,24,06,24,15.90
2008,08,24,06,25,15.90
2008,08,24,06,26,16.00
2008,08,24,06,27,15.90
2008,08,24,06,28,15.90
2008,08,24,06,29,15.90
2008,08,24,06,30,15.90
2008,08,24,06,31,15.90
2008,08,24,06,32,16.00
2008,08,24,06,33,16.00
2008,08,24,06,34,16.00
2008,08,24,06,35,16.00
2008,08,24,06,36,16.10
2008,08,24,06,37,16.10
2008,08,24,06,38,16.10
2008,08,24,06,39,16.10
2008,08,24,06,40,16.10
2008,08,24,06,41,16.10
2008,08,24,06,42,16.10
2008,08,24,06,43,16.10
2008,08,24,06,44,16.10
2008,08,24,06,45,16.10
2008,08,24,06,46,16.10
2008,08,24,06,47,16.10
2008,08,24,06,48,16.10
2008,08,24,06,49,16.10
2008,08,24,06,50,16.10
2008,08,24,06,51,16.10
2008,08,24,06,52,16.20
2008,08,24,06,53,16.20
2008,08,24,06,54,16.30
2008,08,24,06,55,16.30
2008,08,24,06,56,16.40
2008,08,24,06,57,16.40
2008,08,24,06,58,16.50
2008,08,24,06,59,16.50
2008,08,24,07,00,16.50
2008,08,24,07,01,16.60
2008,08,24,07,02,16.60
2008,08,24,07,03,16.60
2008,08,24,07,04,16.60
2008,08,24,07,05,16.60
2008,08,24,07,06,16.60
2008,08,24,07,07,16.60
2008,08,24,07,08,16.60
2008,08,24,07,09,16.50
2008,08,24,07,10,16.50
2008,08,24,07,11,16.40
2008,08,24,07,12,16.40
2008,08,24,07,13,16.40
2008,08,24,07,14,16.40
2008,08,24,07,15,16.40
2008,08,24,07,16,16.40
2008,08,24,07,17,16.40
2008,08,24,07,18,16.40
2008,08,24,07,19,16.40
2008,08,24,07,20,16.40
2008,08,24,07,21,16.40
2008,08,24,07,22,16.40
2008,08,24,07,23,16.40
2008,08,24,07,24,16.40
2008,08,24,07,25,16.40
2008,08,24,07,26,16.40
2008,08,24,07,27,16.40
2008,08,24,07,28,16.40
2008,08,24,07,29,16.40
2008,08,24,07,30,16.40
2008,08,24,07,31,16.40
2008,08,24,07,32,16.30
2008,08,24,07,33,16.30
2008,08,24,07,34,16.30
2008,08,24,07,35,16.30
2008,08,24,07,36,16.30
2008,08,24,07,37,16.30
2008,08,24,07,38,16.30
2008,08,24,07,39,16.30
2008,08,24,07,40,16.30
2008,08,24,07,41,16.30
2008,08,24,07,42,16.30
2008,08,24,07,43,16.30
2008,08,24,07,44,16.30
2008,08,24,07,45,16.30
2008,08,24,07,46,16.30
2008,08,24,07,47,16.20
2008,08,24,07,48,16.20
2008,08,24,07,49,16.20
2008,08,24,07,50,16.20
2008,08,24,07,51,16.20
2008,08,24,07,52,16.20
2008,08,24,07,53,16.20
2008,08,24,07,54,16.10
2008,08,24,07,55,16.10
2008,08,24,07,56,16.10
2008,08,24,07,57,16.10
2008,08,24,07,58,16.10
2008,08,24,07,59,16.10
2008,08,24,08,00,16.10
2008,08,24,08,01,16.10
2008,08,24,08,02,16.00
2008,08,24,08,03,16.10
2008,08,24,08,04,16.10
2008,08,24,08,05,16.10
2008,08,24,08,06,16.10
2008,08,24,08,07,16.10
2008,08,24,08,08,16.00
2008,08,24,08,09,16.00
2008,08,24,08,10,16.00
2008,08,24,08,11,16.00
2008,08,24,08,12,16.00
2008,08,24,08,13,16.00
2008,08,24,08,14,16.00
2008,08,24,08,15,15.90
2008,08,24,08,16,15.90
2008,08,24,08,17,15.90
2008,08,24,08,18,15.80
2008,08,24,08,19,15.80
2008,08,24,08,20,15.80
2008,08,24,08,21,15.70
2008,08,24,08,22,15.70
2008,08,24,08,23,15.70
2008,08,24,08,24,15.70
2008,08,24,08,25,15.60
2008,08,24,08,26,15.60
2008,08,24,08,27,15.60
2008,08,24,08,28,15.60
2008,08,24,08,29,15.50
2008,08,24,08,30,15.50
2008,08,24,08,31,15.50
2008,08,24,08,32,15.50
2008,08,24,08,33,15.40
2008,08,24,08,34,15.40
2008,08,24,08,35,15.40
2008,08,24,08,36,15.40
2008,08,24,08,37,15.40
2008,08,24,08,38,15.40
2008,08,24,08,39,15.40
2008,08,24,08,40,15.40
2008,08,24,08,41,15.30
2008,08,24,08,42,15.30
2008,08,24,08,43,15.30
2008,08,24,08,44,15.30
2008,08,24,08,45,15.30
2008,08,24,08,46,15.20
2008,08,24,08,47,15.20
2008,08,24,08,48,15.20
2008,08,24,08,49,15.10
2008,08,24,08,50,15.10
2008,08,24,08,51,15.10
2008,08,24,08,52,15.10
2008,08,24,08,53,15.10
2008,08,24,08,54,15.10
2008,08,24,08,55,15.10
2008,08,24,08,56,15.10
2008,08,24,08,57,15.10
2008,08,24,08,58,15.10
2008,08,24,08,59,15.10
2008,08,24,09,00,15.00
2008,08,24,09,01,15.00
2008,08,24,09,02,15.00
2008,08,24,09,03,15.00
2008,08,24,09,04,15.00
2008,08,24,09,05,15.00
2008,08,24,09,06,15.00
2008,08,24,09,07,15.00
2008,08,24,09,08,15.00
2008,08,24,09,09,15.00
2008,08,24,09,10,15.00
2008,08,24,09,11,15.00
2008,08,24,09,12,15.00
2008,08,24,09,13,15.00
2008,08,24,09,14,15.00
2008,08,24,09,15,15.00
2008,08,24,09,16,15.00
2008,08,24,09,17,15.00
2008,08,24,09,18,15.00
2008,08,24,09,19,15.00
2008,08,24,09,20,15.00
2008,08,24,09,21,15.00
2008,08,24,09,22,15.00
2008,08,24,09,23,15.00
2008,08,24,09,24,15.00
2008,08,24,09,25,15.00
2008,08,24,09,26,15.00
2008,08,24,09,27,15.00
2008,08,24,09,28,15.00
2008,08,24,09,29,15.00
2008,08,24,09,30,15.00
2008,08,24,09,31,15.00
2008,08,24,09,32,15.00
2008,08,24,09,33,15.00
2008,08,24,09,34,15.00
2008,08,24,09,35,15.00
2008,08,24,09,36,15.00
2008,08,24,09,37,15.00
2008,08,24,09,38,15.00
2008,08,24,09,39,15.00
2008,08,24,09,40,15.00
2008,08,24,09,41,15.00
2008,08,24,09,42,15.00
2008,08,24,09,43,15.00
2008,08,24,09,44,15.00
2008,08,24,09,45,15.00
2008,08,24,09,46,15.00
2008,08,24,09,47,15.00
2008,08,24,09,48,15.00
2008,08,24,09,49,15.00
2008,08,24,09,50,15.00
2008,08,24,09,51,15.00
2008,08,24,09,52,15.00
2008,08,24,09,53,15.00
2008,08,24,09,54,15.00
2008,08,24,09,55,14.90
2008,08,24,09,56,14.90
2008,08,24,09,57,14.90
2008,08,24,09,58,14.90
2008,08,24,09,59,14.90
2008,08,24,10,00,14.90
2008,08,24,10,01,14.90
2008,08,24,10,02,14.90
2008,08,24,10,03,14.90
2008,08,24,10,04,14.90
2008,08,24,10,05,15.00
2008,08,24,10,06,15.00
2008,08,24,10,07,15.00
2008,08,24,10,08,15.00
2008,08,24,10,09,15.00
2008,08,24,10,10,15.00
2008,08,24,10,11,15.00
2008,08,24,10,12,15.00
2008,08,24,10,13,15.00
2008,08,24,10,14,15.00
2008,08,24,10,15,15.00
2008,08,24,10,16,15.00
2008,08,24,10,17,15.00
2008,08,24,10,18,15.00
2008,08,24,10,19,15.00
2008,08,24,10,20,15.00
2008,08,24,10,21,15.00
2008,08,24,10,22,15.00
2008,08,24,10,23,15.00
2008,08,24,10,24,15.00
2008,08,24,10,25,15.00
2008,08,24,10,26,15.00
2008,08,24,10,27,15.00
2008,08,24,10,28,15.10
2008,08,24,10,29,15.10
2008,08,24,10,30,15.10
2008,08,24,10,31,15.10
2008,08,24,10,32,15.20
2008,08,24,10,33,15.20
2008,08,24,10,34,15.20
2008,08,24,10,35,15.20
2008,08,24,10,36,15.30
2008,08,24,10,37,15.30
2008,08,24,10,38,15.30
2008,08,24,10,39,15.30
2008,08,24,10,40,15.30
2008,08,24,10,41,15.30
2008,08,24,10,42,15.30
2008,08,24,10,43,15.30
2008,08,24,10,44,15.30
2008,08,24,10,45,15.30
2008,08,24,10,46,15.30
2008,08,24,10,47,15.30
2008,08,24,10,48,15.40
2008,08,24,10,49,15.40
2008,08,24,10,50,15.40
2008,08,24,10,51,15.40
2008,08,24,10,52,15.40
2008,08,24,10,53,15.40
2008,08,24,10,54,15.40
2008,08,24,10,55,15.40
2008,08,24,10,56,15.40
2008,08,24,10,57,15.40
2008,08,24,10,58,15.40
2008,08,24,10,59,15.40
2008,08,24,11,00,15.40
2008,08,24,11,01,15.50
2008,08,24,11,02,15.50
2008,08,24,11,03,15.50
2008,08,24,11,04,15.50
2008,08,24,11,05,15.50
2008,08,24,11,06,15.50
2008,08,24,11,07,15.60
2008,08,24,11,08,15.60
2008,08,24,11,09,15.60
2008,08,24,11,10,15.60
2008,08,24,11,11,15.70
2008,08,24,11,12,15.70
2008,08,24,11,13,15.70
2008,08,24,11,14,15.70
2008,08,24,11,15,15.80
2008,08,24,11,16,15.80
2008,08,24,11,17,15.80
2008,08,24,11,18,15.80
2008,08,24,11,19,15.90
2008,08,24,11,20,15.90
2008,08,24,11,21,15.90
2008,08,24,11,22,16.00
2008,08,24,11,23,16.10
2008,08,24,11,24,16.10
2008,08,24,11,25,16.10
2008,08,24,11,26,16.20
2008,08,24,11,27,16.20
2008,08,24,11,28,16.30
2008,08,24,11,29,16.30
2008,08,24,11,30,16.30
2008,08,24,11,31,16.30
2008,08,24,11,32,16.40
2008,08,24,11,33,16.40
2008,08,24,11,34,16.50
2008,08,24,11,35,16.50
2008,08,24,11,36,16.60
2008,08,24,11,37,16.60
2008,08,24,11,38,16.70
2008,08,24,11,39,16.70
2008,08,24,11,40,16.70
2008,08,24,11,41,16.80
2008,08,24,11,42,16.80
2008,08,24,11,43,16.80
2008,08,24,11,44,16.90
2008,08,24,11,45,16.90
2008,08,24,11,46,17.00
2008,08,24,11,47,17.00
2008,08,24,11,48,17.10
2008,08,24,11,49,17.10
2008,08,24,11,50,17.20
2008,08,24,11,51,17.20
2008,08,24,11,52,17.30
2008,08,24,11,53,17.30
2008,08,24,11,54,17.30
2008,08,24,11,55,17.40
2008,08,24,11,56,17.40
2008,08,24,11,57,17.40
2008,08,24,11,58,17.40
2008,08,24,11,59,17.50
2008,08,24,12,00,17.50
2008,08,24,12,01,17.60
2008,08,24,12,02,17.60
2008,08,24,12,03,17.60
2008,08,24,12,04,17.70
2008,08,24,12,05,17.70
2008,08,24,12,06,17.80
2008,08,24,12,07,17.80
2008,08,24,12,08,17.80
2008,08,24,12,09,17.80
2008,08,24,12,10,17.80
2008,08,24,12,11,17.70
2008,08,24,12,12,17.60
2008,08,24,12,13,17.40
2008,08,24,12,14,17.40
2008,08,24,12,15,17.30
2008,08,24,12,16,17.20
2008,08,24,12,17,17.10
2008,08,24,12,18,17.10
2008,08,24,12,19,17.00
2008,08,24,12,20,16.90
2008,08,24,12,21,16.80
2008,08,24,12,22,16.70
2008,08,24,12,23,16.60
2008,08,24,12,24,16.50
2008,08,24,12,25,16.40
2008,08,24,12,26,16.40
2008,08,24,12,27,16.30
2008,08,24,12,28,16.30
2008,08,24,12,29,16.20
2008,08,24,12,30,16.20
2008,08,24,12,31,16.20
2008,08,24,12,32,16.20
2008,08,24,12,33,16.20
2008,08,24,12,34,16.20
2008,08,24,12,35,16.20
2008,08,24,12,36,16.10
2008,08,24,12,37,16.10
2008,08,24,12,38,16.10
2008,08,24,12,39,16.10
2008,08,24,12,40,16.10
2008,08,24,12,41,16.10
2008,08,24,12,42,16.10
2008,08,24,12,43,16.20
2008,08,24,12,44,16.20
2008,08,24,12,45,16.20
2008,08,24,12,46,16.30
2008,08,24,12,47,16.30
2008,08,24,12,48,16.40
2008,08,24,12,49,16.40
2008,08,24,12,50,16.40
2008,08,24,12,51,16.50
2008,08,24,12,52,16.60
2008,08,24,12,53,16.60
2008,08,24,12,54,16.60
2008,08,24,12,55,16.70
2008,08,24,12,56,16.80
2008,08,24,12,57,16.80
2008,08,24,12,58,16.90
2008,08,24,12,59,16.90
2008,08,24,13,00,17.00
2008,08,24,13,01,17.10
2008,08,24,13,02,17.10
2008,08,24,13,03,17.10
2008,08,24,13,04,17.20
2008,08,24,13,05,17.20
2008,08,24,13,06,17.20
2008,08,24,13,07,17.30
2008,08,24,13,08,17.30
2008,08,24,13,09,17.30
2008,08,24,13,10,17.30
2008,08,24,13,11,17.30
2008,08,24,13,12,17.30
2008,08,24,13,13,17.30
2008,08,24,13,14,17.30
2008,08,24,13,15,17.30
2008,08,24,13,16,17.30
2008,08,24,13,17,17.30
2008,08,24,13,18,17.30
2008,08,24,13,19,17.30
2008,08,24,13,20,17.30
2008,08,24,13,21,17.30
2008,08,24,13,22,17.30
2008,08,24,13,23,17.30
2008,08,24,13,24,17.30
2008,08,24,13,25,17.30
2008,08,24,13,26,17.30
2008,08,24,13,27,17.30
2008,08,24,13,28,17.30
2008,08,24,13,29,17.40
2008,08,24,13,30,17.40
2008,08,24,13,31,17.40
2008,08,24,13,32,17.40
2008,08,24,13,33,17.40
2008,08,24,13,34,17.40
2008,08,24,13,35,17.40
2008,08,24,13,36,17.40
2008,08,24,13,37,17.40
2008,08,24,13,38,17.40
2008,08,24,13,39,17.50
2008,08,24,13,40,17.50
2008,08,24,13,41,17.60
2008,08,24,13,42,17.60
2008,08,24,13,43,17.70
2008,08,24,13,44,17.70
2008,08,24,13,45,17.80
2008,08,24,13,46,17.80
2008,08,24,13,47,17.80
2008,08,24,13,48,17.90
2008,08,24,13,49,17.90
2008,08,24,13,50,18.00
2008,08,24,13,51,18.10
2008,08,24,13,52,18.10
2008,08,24,13,53,18.00
2008,08,24,13,54,17.90
2008,08,24,13,55,17.70
2008,08,24,13,56,17.60
2008,08,24,13,57,17.60
2008,08,24,13,58,17.50
2008,08,24,13,59,17.40
2008,08,24,14,00,17.30
2008,08,24,14,01,17.30
2008,08,24,14,02,17.20
2008,08,24,14,03,17.20
2008,08,24,14,04,17.10
2008,08,24,14,05,17.10
2008,08,24,14,06,17.00
2008,08,24,14,07,17.00
2008,08,24,14,08,17.00
2008,08,24,14,09,17.10
2008,08,24,14,10,17.10
2008,08,24,14,11,17.20
2008,08,24,14,12,17.20
2008,08,24,14,13,17.30
2008,08,24,14,14,17.40
2008,08,24,14,15,17.50
2008,08,24,14,16,17.60
2008,08,24,14,17,17.70
2008,08,24,14,18,17.90
2008,08,24,14,19,18.00
2008,08,24,14,20,18.10
2008,08,24,14,21,18.20
2008,08,24,14,22,18.20
2008,08,24,14,23,18.10
2008,08,24,14,24,18.00
2008,08,24,14,25,17.90
2008,08,24,14,26,17.80
2008,08,24,14,27,17.70
2008,08,24,14,28,17.60
2008,08,24,14,29,17.60
2008,08,24,14,30,17.50
2008,08,24,14,31,17.40
2008,08,24,14,32,17.40
2008,08,24,14,33,17.40
2008,08,24,14,34,17.50
2008,08,24,14,35,17.50
2008,08,24,14,36,17.50
2008,08,24,14,37,17.60
2008,08,24,14,38,17.60
2008,08,24,14,39,17.60
2008,08,24,14,40,17.60
2008,08,24,14,41,17.60
2008,08,24,14,42,17.70
2008,08,24,14,43,17.70
2008,08,24,14,44,17.80
2008,08,24,14,45,17.80
2008,08,24,14,46,17.90
2008,08,24,14,47,17.90
2008,08,24,14,48,17.90
2008,08,24,14,49,17.90
2008,08,24,14,50,17.90
2008,08,24,14,51,17.90
2008,08,24,14,52,17.90
2008,08,24,14,53,17.80
2008,08,24,14,54,17.80
2008,08,24,14,55,17.80
2008,08,24,14,56,17.90
2008,08,24,14,57,17.80
2008,08,24,14,58,17.80
2008,08,24,14,59,17.80
2008,08,24,15,00,17.70
2008,08,24,15,01,17.70
2008,08,24,15,02,17.60
2008,08,24,15,03,17.50
2008,08,24,15,04,17.40
2008,08,24,15,05,17.40
2008,08,24,15,06,17.40
2008,08,24,15,07,17.30
2008,08,24,15,08,17.30
2008,08,24,15,09,17.20
2008,08,24,15,10,17.10
2008,08,24,15,11,17.10
2008,08,24,15,12,17.10
2008,08,24,15,13,17.10
2008,08,24,15,14,17.10
2008,08,24,15,15,17.20
2008,08,24,15,16,17.20
2008,08,24,15,17,17.20
2008,08,24,15,18,17.20
2008,08,24,15,19,17.30
2008,08,24,15,20,17.30
2008,08,24,15,21,17.30
2008,08,24,15,22,17.30
2008,08,24,15,23,17.30
2008,08,24,15,24,17.30
2008,08,24,15,25,17.30
2008,08,24,15,26,17.30
2008,08,24,15,27,17.30
2008,08,24,15,28,17.30
2008,08,24,15,29,17.20
2008,08,24,15,30,17.20
2008,08,24,15,31,17.00
2008,08,24,15,32,16.90
2008,08,24,15,33,16.80
2008,08,24,15,34,16.80
2008,08,24,15,35,16.80
2008,08,24,15,36,16.80
2008,08,24,15,37,16.80
2008,08,24,15,38,16.90
2008,08,24,15,39,17.00
2008,08,24,15,40,17.10
2008,08,24,15,41,17.20
2008,08,24,15,42,17.20
2008,08,24,15,43,17.30
2008,08,24,15,44,17.40
2008,08,24,15,45,17.50
2008,08,24,15,46,17.60
2008,08,24,15,47,17.70
2008,08,24,15,48,17.70
2008,08,24,15,49,17.80
2008,08,24,15,50,18.00
2008,08,24,15,51,18.00
2008,08,24,15,52,18.10
2008,08,24,15,53,18.20
2008,08,24,15,54,18.30
2008,08,24,15,55,18.30
2008,08,24,15,56,18.40
2008,08,24,15,57,18.40
2008,08,24,15,58,18.40
2008,08,24,15,59,18.50
2008,08,24,16,00,18.50
2008,08,24,16,01,18.60
2008,08,24,16,02,18.60
2008,08,24,16,03,18.60
2008,08,24,16,04,18.70
2008,08,24,16,05,18.60
2008,08,24,16,06,18.60
2008,08,24,16,07,18.60
2008,08,24,16,08,18.60
2008,08,24,16,09,18.60
2008,08,24,16,10,18.60
2008,08,24,16,11,18.60
2008,08,24,16,12,18.70
2008,08,24,16,13,18.70
2008,08,24,16,14,18.70
2008,08,24,16,15,18.70
2008,08,24,16,16,18.70
2008,08,24,16,17,18.80
2008,08,24,16,18,18.80
2008,08,24,16,19,18.90
2008,08,24,16,20,18.90
2008,08,24,16,21,18.90
2008,08,24,16,22,18.90
2008,08,24,16,23,18.90
2008,08,24,16,24,19.00
2008,08,24,16,25,19.00
2008,08,24,16,26,19.10
2008,08,24,16,27,19.10
2008,08,24,16,28,19.10
2008,08,24,16,29,19.20
2008,08,24,16,30,19.20
2008,08,24,16,31,19.30
2008,08,24,16,32,19.30
2008,08,24,16,33,19.40
2008,08,24,16,34,19.40
2008,08,24,16,35,19.40
2008,08,24,16,36,19.50
2008,08,24,16,37,19.60
2008,08,24,16,38,19.60
2008,08,24,16,39,19.70
2008,08,24,16,40,19.70
2008,08,24,16,41,19.50
2008,08,24,16,42,19.40
2008,08,24,16,43,19.20
2008,08,24,16,44,19.10
2008,08,24,16,45,19.00
2008,08,24,16,46,18.80
2008,08,24,16,47,18.80
2008,08,24,16,48,18.80
2008,08,24,16,49,18.70
2008,08,24,16,50,18.70
2008,08,24,16,51,18.80
2008,08,24,16,52,18.80
2008,08,24,16,53,18.90
2008,08,24,16,54,19.00
2008,08,24,16,55,19.00
2008,08,24,16,56,19.10
2008,08,24,16,57,19.20
2008,08,24,16,58,19.20
2008,08,24,16,59,19.20
2008,08,24,17,00,19.20
2008,08,24,17,01,19.20
2008,08,24,17,02,19.10
2008,08,24,17,03,19.10
2008,08,24,17,04,19.00
2008,08,24,17,05,18.90
2008,08,24,17,06,18.90
2008,08,24,17,07,18.80
2008,08,24,17,08,18.70
2008,08,24,17,09,18.70
2008,08,24,17,10,18.60
2008,08,24,17,11,18.60
2008,08,24,17,12,18.60
2008,08,24,17,13,18.60
2008,08,24,17,14,18.50
2008,08,24,17,15,18.50
2008,08,24,17,16,18.50
2008,08,24,17,17,18.40
2008,08,24,17,18,18.40
2008,08,24,17,19,18.50